Overview Statistics Trail Chart Weather Telemetry Raw packets
 

This is the latest recevied weather packets stored in our database for station/object KN4AN. If no packets are shown the sender has not sent any weather packets the latest 10 day(s).

<< 96 97 98 99 100 101 102 >>
Time Temp. Humidity Pressure Rain* Wind** Luminosity Snow
1787840858 25° C 81% 1016.9 hPa 0 mm - 262 W/m² -
1787840553 25° C 80% 1016.9 hPa 0 mm - 231 W/m² -
1787840247 24.44° C 83% 1016.8 hPa 0 mm - 203 W/m² -
1787839947 24.44° C 83% 1016.8 hPa 0 mm - 268 W/m² -
1787839643 24.44° C 82% 1016.7 hPa 0 mm - 249 W/m² -
1787839342 23.89° C 84% 1016.6 hPa 0 mm - 189 W/m² -
1787839042 23.89° C 84% 1016.6 hPa 0 mm - 174 W/m² -
1787838741 23.89° C 84% 1016.7 hPa 0 mm - 167 W/m² -
1787838441 23.89° C 84% 1016.7 hPa 0 mm - 153 W/m² -
1787838141 23.89° C 86% 1016.8 hPa 0 mm - 161 W/m² -
1787837835 23.33° C 86% 1016.7 hPa 0 mm - 147 W/m² -
1787837530 23.33° C 85% 1016.7 hPa 0 mm - 134 W/m² -
1787837229 23.33° C 86% 1016.6 hPa 0 mm - 137 W/m² -
1787836928 23.33° C 86% 1016.6 hPa 0 mm - 166 W/m² -
1787836623 22.78° C 87% 1016.5 hPa 0 mm - 184 W/m² -
1787836323 22.78° C 87% 1016.5 hPa 0 mm - 193 W/m² -
1787836019 22.78° C 88% 1016.5 hPa 0 mm - 151 W/m² -
1787835715 22.78° C 87% 1016.5 hPa 0 mm - 142 W/m² -
1787835410 22.78° C 88% 1016.7 hPa 0 mm - 119 W/m² -
1787835110 22.78° C 88% 1016.6 hPa 0 mm - 117 W/m² -
1787834809 22.78° C 88% 1016.6 hPa 0 mm - 113 W/m² -
1787834504 22.22° C 89% 1016.6 hPa 0 mm - 113 W/m² -
1787834200 22.22° C 90% 1016.6 hPa 0 mm - 119 W/m² -
1787833896 21.67° C 90% 1016.6 hPa 0 mm - 102 W/m² -
1787833596 21.67° C 91% 1016.5 hPa 0 mm - 88 W/m² -

* Rain latest hour (hover to see other rain measurements)
** Current wind speed in m/s (hover to see current wind gust speed)